Year,Month,Day,Hour,Minute,Value (Times are PST for temperature in C)
2014,07,15,00,00,21.90
2014,07,15,00,01,21.90
2014,07,15,00,02,21.90
2014,07,15,00,03,21.90
2014,07,15,00,04,21.90
2014,07,15,00,05,21.90
2014,07,15,00,06,21.90
2014,07,15,00,07,21.90
2014,07,15,00,08,21.90
2014,07,15,00,09,21.90
2014,07,15,00,10,21.90
2014,07,15,00,11,21.90
2014,07,15,00,12,21.90
2014,07,15,00,13,21.90
2014,07,15,00,14,21.90
2014,07,15,00,15,21.90
2014,07,15,00,16,21.90
2014,07,15,00,17,21.90
2014,07,15,00,18,21.80
2014,07,15,00,19,21.80
2014,07,15,00,20,21.80
2014,07,15,00,21,21.80
2014,07,15,00,22,21.80
2014,07,15,00,23,21.80
2014,07,15,00,24,21.80
2014,07,15,00,25,21.80
2014,07,15,00,26,21.80
2014,07,15,00,27,21.80
2014,07,15,00,28,21.80
2014,07,15,00,29,21.80
2014,07,15,00,30,21.80
2014,07,15,00,31,21.70
2014,07,15,00,32,21.70
2014,07,15,00,33,21.70
2014,07,15,00,34,21.70
2014,07,15,00,35,21.70
2014,07,15,00,36,21.60
2014,07,15,00,37,21.60
2014,07,15,00,38,21.50
2014,07,15,00,39,21.50
2014,07,15,00,40,21.40
2014,07,15,00,41,21.40
2014,07,15,00,42,21.40
2014,07,15,00,43,21.40
2014,07,15,00,44,21.40
2014,07,15,00,45,21.40
2014,07,15,00,46,21.40
2014,07,15,00,47,21.40
2014,07,15,00,48,21.40
2014,07,15,00,49,21.30
2014,07,15,00,50,21.30
2014,07,15,00,51,21.30
2014,07,15,00,52,21.30
2014,07,15,00,53,21.20
2014,07,15,00,54,21.20
2014,07,15,00,55,21.20
2014,07,15,00,56,21.20
2014,07,15,00,57,21.10
2014,07,15,00,58,21.10
2014,07,15,00,59,21.10
2014,07,15,01,00,21.10
2014,07,15,01,01,21.10
2014,07,15,01,02,21.10
2014,07,15,01,03,21.00
2014,07,15,01,04,21.00
2014,07,15,01,05,21.00
2014,07,15,01,06,20.90
2014,07,15,01,07,20.90
2014,07,15,01,08,20.90
2014,07,15,01,09,20.90
2014,07,15,01,10,20.90
2014,07,15,01,11,20.90
2014,07,15,01,12,20.80
2014,07,15,01,13,20.80
2014,07,15,01,14,20.80
2014,07,15,01,15,20.80
2014,07,15,01,16,20.70
2014,07,15,01,17,20.70
2014,07,15,01,18,20.70
2014,07,15,01,19,20.70
2014,07,15,01,20,20.70
2014,07,15,01,21,20.60
2014,07,15,01,22,20.60
2014,07,15,01,23,20.60
2014,07,15,01,24,20.60
2014,07,15,01,25,20.50
2014,07,15,01,26,20.50
2014,07,15,01,27,20.50
2014,07,15,01,28,20.40
2014,07,15,01,29,20.40
2014,07,15,01,30,20.40
2014,07,15,01,31,20.40
2014,07,15,01,32,20.40
2014,07,15,01,33,20.30
2014,07,15,01,34,20.30
2014,07,15,01,35,20.30
2014,07,15,01,36,20.30
2014,07,15,01,37,20.20
2014,07,15,01,38,20.20
2014,07,15,01,39,20.20
2014,07,15,01,40,20.20
2014,07,15,01,41,20.20
2014,07,15,01,42,20.20
2014,07,15,01,43,20.10
2014,07,15,01,44,20.10
2014,07,15,01,45,20.10
2014,07,15,01,46,20.10
2014,07,15,01,47,20.10
2014,07,15,01,48,20.10
2014,07,15,01,49,20.10
2014,07,15,01,50,20.10
2014,07,15,01,51,20.10
2014,07,15,01,52,20.10
2014,07,15,01,53,20.00
2014,07,15,01,54,20.00
2014,07,15,01,55,20.00
2014,07,15,01,56,20.00
2014,07,15,01,57,19.90
2014,07,15,01,58,19.90
2014,07,15,01,59,19.90
2014,07,15,02,00,19.90
2014,07,15,02,01,19.80
2014,07,15,02,02,19.80
2014,07,15,02,03,19.80
2014,07,15,02,04,19.80
2014,07,15,02,05,19.80
2014,07,15,02,06,19.80
2014,07,15,02,07,19.70
2014,07,15,02,08,19.70
2014,07,15,02,09,19.70
2014,07,15,02,10,19.70
2014,07,15,02,11,19.70
2014,07,15,02,12,19.70
2014,07,15,02,13,19.70
2014,07,15,02,14,19.70
2014,07,15,02,15,19.70
2014,07,15,02,16,19.70
2014,07,15,02,17,19.70
2014,07,15,02,18,19.70
2014,07,15,02,19,19.70
2014,07,15,02,20,19.70
2014,07,15,02,21,19.70
2014,07,15,02,22,19.70
2014,07,15,02,23,19.70
2014,07,15,02,24,19.70
2014,07,15,02,25,19.70
2014,07,15,02,26,19.70
2014,07,15,02,27,19.60
2014,07,15,02,28,19.60
2014,07,15,02,29,19.60
2014,07,15,02,30,19.60
2014,07,15,02,31,19.60
2014,07,15,02,32,19.60
2014,07,15,02,33,19.50
2014,07,15,02,34,19.50
2014,07,15,02,35,19.50
2014,07,15,02,36,19.50
2014,07,15,02,37,19.50
2014,07,15,02,38,19.40
2014,07,15,02,39,19.40
2014,07,15,02,40,19.40
2014,07,15,02,41,19.40
2014,07,15,02,42,19.30
2014,07,15,02,43,19.30
2014,07,15,02,44,19.30
2014,07,15,02,45,19.30
2014,07,15,02,46,19.30
2014,07,15,02,47,19.30
2014,07,15,02,48,19.30
2014,07,15,02,49,19.30
2014,07,15,02,50,19.30
2014,07,15,02,51,19.30
2014,07,15,02,52,19.20
2014,07,15,02,53,19.20
2014,07,15,02,54,19.20
2014,07,15,02,55,19.20
2014,07,15,02,56,19.20
2014,07,15,02,57,19.20
2014,07,15,02,58,19.20
2014,07,15,02,59,19.20
2014,07,15,03,00,19.20
2014,07,15,03,01,19.20
2014,07,15,03,02,19.10
2014,07,15,03,03,19.10
2014,07,15,03,04,19.10
2014,07,15,03,05,19.10
2014,07,15,03,06,19.10
2014,07,15,03,07,19.10
2014,07,15,03,08,19.10
2014,07,15,03,09,19.10
2014,07,15,03,10,19.10
2014,07,15,03,11,19.10
2014,07,15,03,12,19.00
2014,07,15,03,13,19.00
2014,07,15,03,14,19.00
2014,07,15,03,15,18.90
2014,07,15,03,16,18.90
2014,07,15,03,17,18.90
2014,07,15,03,18,18.90
2014,07,15,03,19,18.90
2014,07,15,03,20,18.90
2014,07,15,03,21,18.80
2014,07,15,03,22,18.80
2014,07,15,03,23,18.80
2014,07,15,03,24,18.80
2014,07,15,03,25,18.80
2014,07,15,03,26,18.80
2014,07,15,03,27,18.80
2014,07,15,03,28,18.80
2014,07,15,03,29,18.70
2014,07,15,03,30,18.70
2014,07,15,03,31,18.70
2014,07,15,03,32,18.60
2014,07,15,03,33,18.60
2014,07,15,03,34,18.60
2014,07,15,03,35,18.60
2014,07,15,03,36,18.60
2014,07,15,03,37,18.60
2014,07,15,03,38,18.50
2014,07,15,03,39,18.50
2014,07,15,03,40,18.40
2014,07,15,03,41,18.40
2014,07,15,03,42,18.40
2014,07,15,03,43,18.40
2014,07,15,03,44,18.40
2014,07,15,03,45,18.30
2014,07,15,03,46,18.30
2014,07,15,03,47,18.30
2014,07,15,03,48,18.30
2014,07,15,03,49,18.30
2014,07,15,03,50,18.30
2014,07,15,03,51,18.30
2014,07,15,03,52,18.20
2014,07,15,03,53,18.20
2014,07,15,03,54,18.20
2014,07,15,03,55,18.20
2014,07,15,03,56,18.20
2014,07,15,03,57,18.20
2014,07,15,03,58,18.20
2014,07,15,03,59,18.10
2014,07,15,04,00,18.10
2014,07,15,04,01,18.10
2014,07,15,04,02,18.10
2014,07,15,04,03,18.10
2014,07,15,04,04,18.00
2014,07,15,04,05,18.00
2014,07,15,04,06,17.90
2014,07,15,04,07,17.90
2014,07,15,04,08,17.90
2014,07,15,04,09,17.90
2014,07,15,04,10,17.80
2014,07,15,04,11,17.80
2014,07,15,04,12,17.80
2014,07,15,04,13,17.80
2014,07,15,04,14,17.80
2014,07,15,04,15,17.80
2014,07,15,04,16,17.80
2014,07,15,04,17,17.70
2014,07,15,04,18,17.70
2014,07,15,04,19,17.70
2014,07,15,04,20,17.70
2014,07,15,04,21,17.70
2014,07,15,04,22,17.70
2014,07,15,04,23,17.70
2014,07,15,04,24,17.70
2014,07,15,04,25,17.60
2014,07,15,04,26,17.60
2014,07,15,04,27,17.60
2014,07,15,04,28,17.60
2014,07,15,04,29,17.60
2014,07,15,04,30,17.60
2014,07,15,04,31,17.50
2014,07,15,04,32,17.50
2014,07,15,04,33,17.50
2014,07,15,04,34,17.50
2014,07,15,04,35,17.40
2014,07,15,04,36,17.40
2014,07,15,04,37,17.40
2014,07,15,04,38,17.40
2014,07,15,04,39,17.40
2014,07,15,04,40,17.40
2014,07,15,04,41,17.30
2014,07,15,04,42,17.30
2014,07,15,04,43,17.30
2014,07,15,04,44,17.30
2014,07,15,04,45,17.30
2014,07,15,04,46,17.30
2014,07,15,04,47,17.30
2014,07,15,04,48,17.30
2014,07,15,04,49,17.30
2014,07,15,04,50,17.30
2014,07,15,04,51,17.30
2014,07,15,04,52,17.30
2014,07,15,04,53,17.30
2014,07,15,04,54,17.40
2014,07,15,04,55,17.40
2014,07,15,04,56,17.40
2014,07,15,04,57,17.40
2014,07,15,04,58,17.40
2014,07,15,04,59,17.40
2014,07,15,05,00,17.50
2014,07,15,05,01,17.50
2014,07,15,05,02,17.50
2014,07,15,05,03,17.50
2014,07,15,05,04,17.50
2014,07,15,05,05,17.50
2014,07,15,05,06,17.50
2014,07,15,05,07,17.60
2014,07,15,05,08,17.60
2014,07,15,05,09,17.60
2014,07,15,05,10,17.60
2014,07,15,05,11,17.60
2014,07,15,05,12,17.60
2014,07,15,05,13,17.60
2014,07,15,05,14,17.60
2014,07,15,05,15,17.60
2014,07,15,05,16,17.60
2014,07,15,05,17,17.60
2014,07,15,05,18,17.60
2014,07,15,05,19,17.60
2014,07,15,05,20,17.60
2014,07,15,05,21,17.60
2014,07,15,05,22,17.60
2014,07,15,05,23,17.60
2014,07,15,05,24,17.50
2014,07,15,05,25,17.50
2014,07,15,05,26,17.50
2014,07,15,05,27,17.50
2014,07,15,05,28,17.50
2014,07,15,05,29,17.50
2014,07,15,05,30,17.50
2014,07,15,05,31,17.50
2014,07,15,05,32,17.50
2014,07,15,05,33,17.50
2014,07,15,05,34,17.50
2014,07,15,05,35,17.40
2014,07,15,05,36,17.40
2014,07,15,05,37,17.40
2014,07,15,05,38,17.40
2014,07,15,05,39,17.40
2014,07,15,05,40,17.30
2014,07,15,05,41,17.30
2014,07,15,05,42,17.30
2014,07,15,05,43,17.30
2014,07,15,05,44,17.30
2014,07,15,05,45,17.30
2014,07,15,05,46,17.20
2014,07,15,05,47,17.20
2014,07,15,05,48,17.20
2014,07,15,05,49,17.20
2014,07,15,05,50,17.20
2014,07,15,05,51,17.20
2014,07,15,05,52,17.20
2014,07,15,05,53,17.20
2014,07,15,05,54,17.10
2014,07,15,05,55,17.20
2014,07,15,05,56,17.20
2014,07,15,05,57,17.10
2014,07,15,05,58,17.10
2014,07,15,05,59,17.10
2014,07,15,06,00,17.10
2014,07,15,06,01,17.10
2014,07,15,06,02,17.10
2014,07,15,06,03,17.10
2014,07,15,06,04,17.10
2014,07,15,06,05,17.10
2014,07,15,06,06,17.10
2014,07,15,06,07,17.10
2014,07,15,06,08,17.10
2014,07,15,06,09,17.10
2014,07,15,06,10,17.10
2014,07,15,06,11,17.10
2014,07,15,06,12,17.10
2014,07,15,06,13,17.10
2014,07,15,06,14,17.10
2014,07,15,06,15,17.10
2014,07,15,06,16,17.10
2014,07,15,06,17,17.10
2014,07,15,06,18,17.10
2014,07,15,06,19,17.10
2014,07,15,06,20,17.10
2014,07,15,06,21,17.10
2014,07,15,06,22,17.10
2014,07,15,06,23,17.20
2014,07,15,06,24,17.20
2014,07,15,06,25,17.20
2014,07,15,06,26,17.20
2014,07,15,06,27,17.20
2014,07,15,06,28,17.20
2014,07,15,06,29,17.20
2014,07,15,06,30,17.30
2014,07,15,06,31,17.30
2014,07,15,06,32,17.30
2014,07,15,06,33,17.30
2014,07,15,06,34,17.30
2014,07,15,06,35,17.30
2014,07,15,06,36,17.30
2014,07,15,06,37,17.40
2014,07,15,06,38,17.40
2014,07,15,06,39,17.40
2014,07,15,06,40,17.40
2014,07,15,06,41,17.40
2014,07,15,06,42,17.50
2014,07,15,06,43,17.50
2014,07,15,06,44,17.60
2014,07,15,06,45,17.60
2014,07,15,06,46,17.60
2014,07,15,06,47,17.70
2014,07,15,06,48,17.70
2014,07,15,06,49,17.80
2014,07,15,06,50,17.80
2014,07,15,06,51,17.80
2014,07,15,06,52,17.80
2014,07,15,06,53,17.90
2014,07,15,06,54,17.90
2014,07,15,06,55,17.90
2014,07,15,06,56,17.90
2014,07,15,06,57,17.90
2014,07,15,06,58,18.00
2014,07,15,06,59,18.00
2014,07,15,07,00,18.10
2014,07,15,07,01,18.10
2014,07,15,07,02,18.20
2014,07,15,07,03,18.20
2014,07,15,07,04,18.20
2014,07,15,07,05,18.30
2014,07,15,07,06,18.30
2014,07,15,07,07,18.30
2014,07,15,07,08,18.40
2014,07,15,07,09,18.40
2014,07,15,07,10,18.40
2014,07,15,07,11,18.50
2014,07,15,07,12,18.50
2014,07,15,07,13,18.50
2014,07,15,07,14,18.50
2014,07,15,07,15,18.60
2014,07,15,07,16,18.60
2014,07,15,07,17,18.60
2014,07,15,07,18,18.60
2014,07,15,07,19,18.70
2014,07,15,07,20,18.80
2014,07,15,07,21,18.80
2014,07,15,07,22,18.90
2014,07,15,07,23,18.90
2014,07,15,07,24,18.90
2014,07,15,07,25,19.00
2014,07,15,07,26,19.10
2014,07,15,07,27,19.10
2014,07,15,07,28,19.10
2014,07,15,07,29,19.10
2014,07,15,07,30,19.10
2014,07,15,07,31,19.20
2014,07,15,07,32,19.10
2014,07,15,07,33,19.10
2014,07,15,07,34,19.20
2014,07,15,07,35,19.20
2014,07,15,07,36,19.20
2014,07,15,07,37,19.20
2014,07,15,07,38,19.20
2014,07,15,07,39,19.20
2014,07,15,07,40,19.20
2014,07,15,07,41,19.20
2014,07,15,07,42,19.20
2014,07,15,07,43,19.20
2014,07,15,07,44,19.20
2014,07,15,07,45,19.20
2014,07,15,07,46,19.20
2014,07,15,07,47,19.30
2014,07,15,07,48,19.30
2014,07,15,07,49,19.30
2014,07,15,07,50,19.30
2014,07,15,07,51,19.40
2014,07,15,07,52,19.40
2014,07,15,07,53,19.40
2014,07,15,07,54,19.40
2014,07,15,07,55,19.40
2014,07,15,07,56,19.50
2014,07,15,07,57,19.50
2014,07,15,07,58,19.50
2014,07,15,07,59,19.50
2014,07,15,08,00,19.50
2014,07,15,08,01,19.60
2014,07,15,08,02,19.60
2014,07,15,08,03,19.60
2014,07,15,08,04,19.60
2014,07,15,08,05,19.60
2014,07,15,08,06,19.60
2014,07,15,08,07,19.60
2014,07,15,08,08,19.60
2014,07,15,08,09,19.70
2014,07,15,08,10,19.70
2014,07,15,08,11,19.80
2014,07,15,08,12,19.80
2014,07,15,08,13,19.90
2014,07,15,08,14,19.90
2014,07,15,08,15,20.00
2014,07,15,08,16,20.10
2014,07,15,08,17,20.10
2014,07,15,08,18,20.20
2014,07,15,08,19,20.20
2014,07,15,08,20,20.30
2014,07,15,08,21,20.30
2014,07,15,08,22,20.30
2014,07,15,08,23,20.30
2014,07,15,08,24,20.30
2014,07,15,08,25,20.30
2014,07,15,08,26,20.30
2014,07,15,08,27,20.30
2014,07,15,08,28,20.30
2014,07,15,08,29,20.30
2014,07,15,08,30,20.30
2014,07,15,08,31,20.30
2014,07,15,08,32,20.30
2014,07,15,08,33,20.30
2014,07,15,08,34,20.30
2014,07,15,08,35,20.40
2014,07,15,08,36,20.40
2014,07,15,08,37,20.40
2014,07,15,08,38,20.50
2014,07,15,08,39,20.50
2014,07,15,08,40,20.50
2014,07,15,08,41,20.60
2014,07,15,08,42,20.60
2014,07,15,08,43,20.60
2014,07,15,08,44,20.70
2014,07,15,08,45,20.70
2014,07,15,08,46,20.80
2014,07,15,08,47,20.80
2014,07,15,08,48,20.80
2014,07,15,08,49,20.80
2014,07,15,08,50,20.80
2014,07,15,08,51,20.80
2014,07,15,08,52,20.80
2014,07,15,08,53,20.80
2014,07,15,08,54,20.90
2014,07,15,08,55,20.90
2014,07,15,08,56,20.90
2014,07,15,08,57,20.90
2014,07,15,08,58,20.90
2014,07,15,08,59,20.90
2014,07,15,09,00,20.90
2014,07,15,09,01,20.90
2014,07,15,09,02,20.90
2014,07,15,09,03,20.90
2014,07,15,09,04,20.90
2014,07,15,09,05,20.90
2014,07,15,09,06,20.90
2014,07,15,09,07,20.90
2014,07,15,09,08,21.00
2014,07,15,09,09,20.90
2014,07,15,09,10,20.90
2014,07,15,09,11,20.90
2014,07,15,09,12,20.80
2014,07,15,09,13,20.80
2014,07,15,09,14,20.80
2014,07,15,09,15,20.80
2014,07,15,09,16,20.70
2014,07,15,09,17,20.70
2014,07,15,09,18,20.70
2014,07,15,09,19,20.70
2014,07,15,09,20,20.70
2014,07,15,09,21,20.70
2014,07,15,09,22,20.60
2014,07,15,09,23,20.60
2014,07,15,09,24,20.50
2014,07,15,09,25,20.50
2014,07,15,09,26,20.50
2014,07,15,09,27,20.50
2014,07,15,09,28,20.60
2014,07,15,09,29,20.60
2014,07,15,09,30,20.50
2014,07,15,09,31,20.50
2014,07,15,09,32,20.50
2014,07,15,09,33,20.50
2014,07,15,09,34,20.60
2014,07,15,09,35,20.60
2014,07,15,09,36,20.70
2014,07,15,09,37,20.80
2014,07,15,09,38,20.80
2014,07,15,09,39,20.80
2014,07,15,09,40,20.90
2014,07,15,09,41,20.80
2014,07,15,09,42,20.80
2014,07,15,09,43,20.70
2014,07,15,09,44,20.70
2014,07,15,09,45,20.70
2014,07,15,09,46,20.60
2014,07,15,09,47,20.60
2014,07,15,09,48,20.50
2014,07,15,09,49,20.50
2014,07,15,09,50,20.60
2014,07,15,09,51,20.60
2014,07,15,09,52,20.60
2014,07,15,09,53,20.70
2014,07,15,09,54,20.70
2014,07,15,09,55,20.70
2014,07,15,09,56,20.70
2014,07,15,09,57,20.70
2014,07,15,09,58,20.80
2014,07,15,09,59,20.80
2014,07,15,10,00,20.90
2014,07,15,10,01,20.90
2014,07,15,10,02,21.00
2014,07,15,10,03,21.00
2014,07,15,10,04,21.10
2014,07,15,10,05,21.10
2014,07,15,10,06,21.10
2014,07,15,10,07,21.20
2014,07,15,10,08,21.20
2014,07,15,10,09,21.20
2014,07,15,10,10,21.30
2014,07,15,10,11,21.30
2014,07,15,10,12,21.30
2014,07,15,10,13,21.30
2014,07,15,10,14,21.30
2014,07,15,10,15,21.30
2014,07,15,10,16,21.40
2014,07,15,10,17,21.40
2014,07,15,10,18,21.40
2014,07,15,10,19,21.50
2014,07,15,10,20,21.50
2014,07,15,10,21,21.50
2014,07,15,10,22,21.50
2014,07,15,10,23,21.60
2014,07,15,10,24,21.60
2014,07,15,10,25,21.70
2014,07,15,10,26,21.70
2014,07,15,10,27,21.80
2014,07,15,10,28,21.80
2014,07,15,10,29,21.80
2014,07,15,10,30,21.60
2014,07,15,10,31,21.60
2014,07,15,10,32,21.60
2014,07,15,10,33,21.50
2014,07,15,10,34,21.50
2014,07,15,10,35,21.40
2014,07,15,10,36,21.30
2014,07,15,10,37,21.30
2014,07,15,10,38,21.30
2014,07,15,10,39,21.30
2014,07,15,10,40,21.30
2014,07,15,10,41,21.30
2014,07,15,10,42,21.40
2014,07,15,10,43,21.40
2014,07,15,10,44,21.50
2014,07,15,10,45,21.50
2014,07,15,10,46,21.60
2014,07,15,10,47,21.70
2014,07,15,10,48,21.70
2014,07,15,10,49,21.70
2014,07,15,10,50,21.80
2014,07,15,10,51,21.90
2014,07,15,10,52,22.00
2014,07,15,10,53,22.10
2014,07,15,10,54,22.10
2014,07,15,10,55,22.20
2014,07,15,10,56,22.20
2014,07,15,10,57,22.30
2014,07,15,10,58,22.40
2014,07,15,10,59,22.50
2014,07,15,11,00,22.60
2014,07,15,11,01,22.80
2014,07,15,11,02,22.80
2014,07,15,11,03,22.80
2014,07,15,11,04,22.60
2014,07,15,11,05,22.50
2014,07,15,11,06,22.50
2014,07,15,11,07,22.50
2014,07,15,11,08,22.50
2014,07,15,11,09,22.50
2014,07,15,11,10,22.50
2014,07,15,11,11,22.40
2014,07,15,11,12,22.30
2014,07,15,11,13,22.40
2014,07,15,11,14,22.30
2014,07,15,11,15,22.40
2014,07,15,11,16,22.40
2014,07,15,11,17,22.40
2014,07,15,11,18,22.50
2014,07,15,11,19,22.60
2014,07,15,11,20,22.60
2014,07,15,11,21,22.60
2014,07,15,11,22,22.60
2014,07,15,11,23,22.40
2014,07,15,11,24,22.30
2014,07,15,11,25,22.20
2014,07,15,11,26,22.20
2014,07,15,11,27,22.30
2014,07,15,11,28,22.40
2014,07,15,11,29,22.40
2014,07,15,11,30,22.40
2014,07,15,11,31,22.40
2014,07,15,11,32,22.40
2014,07,15,11,33,22.30
2014,07,15,11,34,22.30
2014,07,15,11,35,22.30
2014,07,15,11,36,22.30
2014,07,15,11,37,22.30
2014,07,15,11,38,22.30
2014,07,15,11,39,22.30
2014,07,15,11,40,22.30
2014,07,15,11,41,22.40
2014,07,15,11,42,22.50
2014,07,15,11,43,22.60
2014,07,15,11,44,22.70
2014,07,15,11,45,22.80
2014,07,15,11,46,22.80
2014,07,15,11,47,22.80
2014,07,15,11,48,22.70
2014,07,15,11,49,22.70
2014,07,15,11,50,22.70
2014,07,15,11,51,22.70
2014,07,15,11,52,22.80
2014,07,15,11,53,22.80
2014,07,15,11,54,22.90
2014,07,15,11,55,23.00
2014,07,15,11,56,23.00
2014,07,15,11,57,23.10
2014,07,15,11,58,23.10
2014,07,15,11,59,23.10
2014,07,15,12,00,23.20
2014,07,15,12,01,23.20
2014,07,15,12,02,23.10
2014,07,15,12,03,23.10
2014,07,15,12,04,23.10
2014,07,15,12,05,23.20
2014,07,15,12,06,23.20
2014,07,15,12,07,23.30
2014,07,15,12,08,23.30
2014,07,15,12,09,23.40
2014,07,15,12,10,23.40
2014,07,15,12,11,23.40
2014,07,15,12,12,23.40
2014,07,15,12,13,23.40
2014,07,15,12,14,23.50
2014,07,15,12,15,23.60
2014,07,15,12,16,23.70
2014,07,15,12,17,23.70
2014,07,15,12,18,23.80
2014,07,15,12,19,23.80
2014,07,15,12,20,23.80
2014,07,15,12,21,23.80
2014,07,15,12,22,23.70
2014,07,15,12,23,23.60
2014,07,15,12,24,23.70
2014,07,15,12,25,23.70
2014,07,15,12,26,23.80
2014,07,15,12,27,23.90
2014,07,15,12,28,24.00
2014,07,15,12,29,24.10
2014,07,15,12,30,24.20
2014,07,15,12,31,24.30
2014,07,15,12,32,24.30
2014,07,15,12,33,24.40
2014,07,15,12,34,24.40
2014,07,15,12,35,24.40
2014,07,15,12,36,24.40
2014,07,15,12,37,24.30
2014,07,15,12,38,24.30
2014,07,15,12,39,24.20
2014,07,15,12,40,24.20
2014,07,15,12,41,24.20
2014,07,15,12,42,24.20
2014,07,15,12,43,24.20
2014,07,15,12,44,24.20
2014,07,15,12,45,24.20
2014,07,15,12,46,24.20
2014,07,15,12,47,24.20
2014,07,15,12,48,24.20
2014,07,15,12,49,24.20
2014,07,15,12,50,24.10
2014,07,15,12,51,24.10
2014,07,15,12,52,24.10
2014,07,15,12,53,24.20
2014,07,15,12,54,24.20
2014,07,15,12,55,24.20
2014,07,15,12,56,24.20
2014,07,15,12,57,24.20
2014,07,15,12,58,24.20
2014,07,15,12,59,24.20
2014,07,15,13,00,24.20
2014,07,15,13,01,24.30
2014,07,15,13,02,24.40
2014,07,15,13,03,24.50
2014,07,15,13,04,24.60
2014,07,15,13,05,24.70
2014,07,15,13,06,24.80
2014,07,15,13,07,25.00
2014,07,15,13,08,25.10
2014,07,15,13,09,25.20
2014,07,15,13,10,25.30
2014,07,15,13,11,25.40
2014,07,15,13,12,25.40
2014,07,15,13,13,25.40
2014,07,15,13,14,25.50
2014,07,15,13,15,25.50
2014,07,15,13,16,25.60
2014,07,15,13,17,25.60
2014,07,15,13,18,25.70
2014,07,15,13,19,25.70
2014,07,15,13,20,25.60
2014,07,15,13,21,25.50
2014,07,15,13,22,25.50
2014,07,15,13,23,25.40
2014,07,15,13,24,25.40
2014,07,15,13,25,25.40
2014,07,15,13,26,25.40
2014,07,15,13,27,25.40
2014,07,15,13,28,25.40
2014,07,15,13,29,25.50
2014,07,15,13,30,25.60
2014,07,15,13,31,25.60
2014,07,15,13,32,25.70
2014,07,15,13,33,25.70
2014,07,15,13,34,25.70
2014,07,15,13,35,25.60
2014,07,15,13,36,25.60
2014,07,15,13,37,25.60
2014,07,15,13,38,25.60
2014,07,15,13,39,25.50
2014,07,15,13,40,25.60
2014,07,15,13,41,25.70
2014,07,15,13,42,25.80
2014,07,15,13,43,26.00
2014,07,15,13,44,26.10
2014,07,15,13,45,26.20
2014,07,15,13,46,26.30
2014,07,15,13,47,26.40
2014,07,15,13,48,26.40
2014,07,15,13,49,26.50
2014,07,15,13,50,26.40
2014,07,15,13,51,26.40
2014,07,15,13,52,26.40
2014,07,15,13,53,26.40
2014,07,15,13,54,26.50
2014,07,15,13,55,26.60
2014,07,15,13,56,26.60
2014,07,15,13,57,26.60
2014,07,15,13,58,26.60
2014,07,15,13,59,26.60
2014,07,15,14,00,26.70
2014,07,15,14,01,26.70
2014,07,15,14,02,26.80
2014,07,15,14,03,26.80
2014,07,15,14,04,26.90
2014,07,15,14,05,26.90
2014,07,15,14,06,27.00
2014,07,15,14,07,27.00
2014,07,15,14,08,26.90
2014,07,15,14,09,26.90
2014,07,15,14,10,27.00
2014,07,15,14,11,26.90
2014,07,15,14,12,26.90
2014,07,15,14,13,26.90
2014,07,15,14,14,27.00
2014,07,15,14,15,27.00
2014,07,15,14,16,27.00
2014,07,15,14,17,27.10
2014,07,15,14,18,27.00
2014,07,15,14,19,27.00
2014,07,15,14,20,27.10
2014,07,15,14,21,27.20
2014,07,15,14,22,27.30
2014,07,15,14,23,27.30
2014,07,15,14,24,27.30
2014,07,15,14,25,27.40
2014,07,15,14,26,27.50
2014,07,15,14,27,27.60
2014,07,15,14,28,27.60
2014,07,15,14,29,27.70
2014,07,15,14,30,27.80
2014,07,15,14,31,27.90
2014,07,15,14,32,27.90
2014,07,15,14,33,28.00
2014,07,15,14,34,28.10
2014,07,15,14,35,28.20
2014,07,15,14,36,28.20
2014,07,15,14,37,28.30
2014,07,15,14,38,28.40
2014,07,15,14,39,28.50
2014,07,15,14,40,28.50
2014,07,15,14,41,28.60
2014,07,15,14,42,28.60
2014,07,15,14,43,28.60
2014,07,15,14,44,28.60
2014,07,15,14,45,28.50
2014,07,15,14,46,28.50
2014,07,15,14,47,28.50
2014,07,15,14,48,28.30
2014,07,15,14,49,28.20
2014,07,15,14,50,28.20
2014,07,15,14,51,28.10
2014,07,15,14,52,28.10
2014,07,15,14,53,28.00
2014,07,15,14,54,28.00
2014,07,15,14,55,27.90
2014,07,15,14,56,27.90
2014,07,15,14,57,27.80
2014,07,15,14,58,27.80
2014,07,15,14,59,27.80
2014,07,15,15,00,27.90
2014,07,15,15,01,27.90
2014,07,15,15,02,27.90
2014,07,15,15,03,28.00
2014,07,15,15,04,28.10
2014,07,15,15,05,28.20
2014,07,15,15,06,28.30
2014,07,15,15,07,28.40
2014,07,15,15,08,28.30
2014,07,15,15,09,28.20
2014,07,15,15,10,28.20
2014,07,15,15,11,28.20
2014,07,15,15,12,28.20
2014,07,15,15,13,28.30
2014,07,15,15,14,28.30
2014,07,15,15,15,28.30
2014,07,15,15,16,28.20
2014,07,15,15,17,28.20
2014,07,15,15,18,28.20
2014,07,15,15,19,28.20
2014,07,15,15,20,28.20
2014,07,15,15,21,28.20
2014,07,15,15,22,28.30
2014,07,15,15,23,28.30
2014,07,15,15,24,28.30
2014,07,15,15,25,28.20
2014,07,15,15,26,28.30
2014,07,15,15,27,28.20
2014,07,15,15,28,28.10
2014,07,15,15,29,28.10
2014,07,15,15,30,28.10
2014,07,15,15,31,28.10
2014,07,15,15,32,28.10
2014,07,15,15,33,28.10
2014,07,15,15,34,28.10
2014,07,15,15,35,28.20
2014,07,15,15,36,28.20
2014,07,15,15,37,28.30
2014,07,15,15,38,28.40
2014,07,15,15,39,28.50
2014,07,15,15,40,28.60
2014,07,15,15,41,28.60
2014,07,15,15,42,28.60
2014,07,15,15,43,28.50
2014,07,15,15,44,28.50
2014,07,15,15,45,28.50
2014,07,15,15,46,28.60
2014,07,15,15,47,28.70
2014,07,15,15,48,28.80
2014,07,15,15,49,28.80
2014,07,15,15,50,28.80
2014,07,15,15,51,28.80
2014,07,15,15,52,28.80
2014,07,15,15,53,28.60
2014,07,15,15,54,28.50
2014,07,15,15,55,28.40
2014,07,15,15,56,28.40
2014,07,15,15,57,28.40
2014,07,15,15,58,28.40
2014,07,15,15,59,28.40
2014,07,15,16,00,28.40
2014,07,15,16,01,28.40
2014,07,15,16,02,28.40
2014,07,15,16,03,28.50
2014,07,15,16,04,28.50
2014,07,15,16,05,28.60
2014,07,15,16,06,28.60
2014,07,15,16,07,28.60
2014,07,15,16,08,28.60
2014,07,15,16,09,28.60
2014,07,15,16,10,28.70
2014,07,15,16,11,28.70
2014,07,15,16,12,28.80
2014,07,15,16,13,28.80
2014,07,15,16,14,28.80
2014,07,15,16,15,28.90
2014,07,15,16,16,28.90
2014,07,15,16,17,28.80
2014,07,15,16,18,28.70
2014,07,15,16,19,28.70
2014,07,15,16,20,28.70
2014,07,15,16,21,28.70
2014,07,15,16,22,28.70
2014,07,15,16,23,28.80
2014,07,15,16,24,28.80
2014,07,15,16,25,28.80
2014,07,15,16,26,28.80
2014,07,15,16,27,28.80
2014,07,15,16,28,28.80
2014,07,15,16,29,28.90
2014,07,15,16,30,28.90
2014,07,15,16,31,29.00
2014,07,15,16,32,29.10
2014,07,15,16,33,29.30
2014,07,15,16,34,29.40
2014,07,15,16,35,29.40
2014,07,15,16,36,29.50
2014,07,15,16,37,29.50
2014,07,15,16,38,29.40
2014,07,15,16,39,29.40
2014,07,15,16,40,29.30
2014,07,15,16,41,29.30
2014,07,15,16,42,29.20
2014,07,15,16,43,29.20
2014,07,15,16,44,29.10
2014,07,15,16,45,29.10
2014,07,15,16,46,29.10
2014,07,15,16,47,29.10
2014,07,15,16,48,29.10
2014,07,15,16,49,29.10
2014,07,15,16,50,29.10
2014,07,15,16,51,29.20
2014,07,15,16,52,29.20
2014,07,15,16,53,29.20
2014,07,15,16,54,29.20
2014,07,15,16,55,29.20
2014,07,15,16,56,29.20
2014,07,15,16,57,29.20
2014,07,15,16,58,29.20
2014,07,15,16,59,29.20
2014,07,15,17,00,29.30
2014,07,15,17,01,29.30
2014,07,15,17,02,29.30
2014,07,15,17,03,29.30
2014,07,15,17,04,29.20
2014,07,15,17,05,29.30
2014,07,15,17,06,29.20
2014,07,15,17,07,29.20
2014,07,15,17,08,29.20
2014,07,15,17,09,29.20
2014,07,15,17,10,29.20
2014,07,15,17,11,29.20
2014,07,15,17,12,29.20
2014,07,15,17,13,29.10
2014,07,15,17,14,29.10
2014,07,15,17,15,29.10
2014,07,15,17,16,29.10
2014,07,15,17,17,29.10
2014,07,15,17,18,29.10
2014,07,15,17,19,29.20